Home > Weather > Tangier > Past weeks

Flag for Morocco Weather for the Past 2 Weeks in Tangier, Morocco

Now
55 °F

Partly sunny.


Feels Like: 55 °F
Forecast: 58 / 70 °F
Wind: No wind

Location: Tanger Aerodrome

Current Time: Feb 6, 2016 at 9:39:00 AM

Latest Report: Feb 6, 2016 at 9:00 AM


Visibility: 5 mi

Pressure: 30.24 "Hg

Humidity: 88%

Dew point: 52 °F

Location of TangierLocation

Historic Weather in Tangier — Graph

°F

Tangier Temperature Yesterday

Maximum temperature yesterday: 68 °F (at 1:00 PM)
Minimum temperature yesterday: 57 °F (at 11:30 PM)
Average temperature yesterday: 61 °F

High & Low Weather Summary for the Past Weeks

 TemperatureHumidityPressure
High70 °F (Jan 23, 1:30 PM)94% (Jan 22, 8:00 AM)30.60 "Hg (Jan 22, 8:00 AM)
Low43 °F (Feb 1, 7:30 AM)40% (Feb 1, 12:00 PM)30.21 "Hg (Feb 5, 4:00 AM)
Average58 °F77%30.39 "Hg
* Reported Jan 22 8:00 AM — Feb 6 8:30 AM, Tangier, Weather by CustomWeather, © 2016

Note: Actual official high and low records may vary slightly from our data, if they occured in-between our weather recording intervals... More about our weather records

Advertising

Tangier Weather History for the Previous 24 Hours

 ConditionsComfort  
Time TempWeatherWind HumidityBarometerVisibility
8:30 AM
Sat, Feb 6
52 °FScattered clouds.1 mph88%30.24 "Hg5 mi
8:00 AM50 °FScattered clouds.1 mph88%30.21 "Hg5 mi
7:30 AM50 °FScattered clouds.3 mph82%30.21 "Hg5 mi
7:00 AM50 °FPartly sunny.No wind82%30.21 "HgN/A
6:30 AM50 °FPartly sunny.2 mph82%30.21 "HgN/A
6:00 AM50 °FPassing clouds.3 mph82%30.21 "HgN/A
5:30 AM50 °FPassing clouds.2 mph88%30.21 "HgN/A
5:00 AM54 °FPassing clouds.1 mph82%30.21 "Hg5 mi
4:00 AM55 °FPartly cloudy.7 mph82%30.21 "HgN/A
3:30 AM55 °FPartly cloudy.7 mph82%30.21 "HgN/A
3:00 AM54 °FPartly cloudy.5 mph82%30.21 "Hg5 mi
2:00 AM55 °FPartly cloudy.7 mph82%30.24 "Hg5 mi
1:00 AM57 °FPartly cloudy.7 mph77%30.24 "Hg5 mi
12:30 AM57 °FPartly cloudy.7 mph77%30.24 "Hg5 mi
12:00 AM57 °FPartly cloudy.8 mph77%30.27 "Hg5 mi
11:30 PM
Fri, Feb 5
57 °FPartly cloudy.8 mph77%30.27 "Hg5 mi
11:00 PM59 °FPartly cloudy.9 mph72%30.24 "Hg5 mi
10:30 PM59 °FPartly cloudy.9 mph72%30.24 "Hg5 mi
10:00 PM59 °FPartly cloudy.10 mph72%30.24 "Hg5 mi
9:30 PM59 °FPartly cloudy.10 mph72%30.24 "Hg5 mi
9:00 PM59 °FPartly cloudy.12 mph77%30.24 "Hg5 mi
8:30 PM59 °FPartly cloudy.10 mph77%30.24 "Hg5 mi
8:00 PM59 °FPartly cloudy.10 mph72%30.24 "Hg5 mi
7:30 PM61 °FPartly cloudy.10 mph72%30.24 "Hg5 mi
7:00 PM61 °FPartly cloudy.10 mph72%30.24 "Hg5 mi
6:30 PM61 °FPartly cloudy.12 mph72%30.21 "Hg5 mi
6:00 PM63 °FPartly cloudy.12 mph68%30.21 "Hg5 mi
5:30 PM63 °FPartly cloudy.12 mph68%30.21 "Hg5 mi
5:00 PM64 °FPartly cloudy.13 mph64%30.21 "Hg5 mi
4:30 PM64 °FPartly sunny.14 mph64%30.21 "Hg5 mi
4:00 PM64 °FPartly sunny.13 mph64%30.21 "Hg5 mi
3:30 PM66 °FPartly sunny.13 mph60%30.21 "Hg5 mi
3:00 PM66 °FPartly sunny.12 mph60%30.21 "Hg5 mi
2:30 PM66 °FPartly sunny.14 mph60%30.21 "Hg5 mi
2:00 PM68 °FPartly sunny.15 mph56%30.21 "Hg5 mi
1:30 PM68 °FPartly sunny.15 mph56%30.21 "Hg5 mi
1:00 PM68 °FPartly sunny.15 mph56%30.21 "Hg5 mi
10:30 AM64 °FBroken clouds.21 mph68%30.27 "Hg5 mi
10:00 AM63 °FBroken clouds.20 mph68%30.24 "Hg5 mi
9:30 AM61 °FBroken clouds.16 mph72%30.24 "Hg5 mi
9:00 AM61 °FBroken clouds.20 mph72%30.24 "Hg5 mi
Weather by CustomWeather, © 2016

See weather overviewHow to use our weather pages